TimeCDT,TemperatureF,Dew PointF,Humidity,Sea Level PressureIn,VisibilityMPH,Wind Direction,Wind SpeedMPH,Gust SpeedMPH,PrecipitationIn,Events,Conditions,WindDirDegrees,DateUTC
12:15 AM,57.6,36.3,45,30.09,10.0,South,3.5,-,N/A,,Clear,180,2013-04-07 05:15:00
12:35 AM,59.5,35.2,40,30.09,10.0,South,3.5,-,N/A,,Clear,180,2013-04-07 05:35:00
12:55 AM,58.6,35.1,41,30.09,10.0,South,4.6,-,N/A,,Clear,190,2013-04-07 05:55:00
1:15 AM,59.2,34.5,40,30.09,10.0,South,5.8,-,N/A,,Clear,190,2013-04-07 06:15:00
1:35 AM,57.7,34.9,42,30.08,10.0,South,3.5,-,N/A,,Clear,170,2013-04-07 06:35:00
1:55 AM,54.5,35.6,49,30.08,10.0,SSE,4.6,-,N/A,,Clear,160,2013-04-07 06:55:00
2:15 AM,53.6,36.0,51,30.07,10.0,South,4.6,-,N/A,,Clear,170,2013-04-07 07:15:00
2:35 AM,56.7,34.7,44,30.07,10.0,South,6.9,-,N/A,,Clear,180,2013-04-07 07:35:00
2:55 AM,57.4,34.2,42,30.07,10.0,SSW,6.9,-,N/A,,Clear,200,2013-04-07 07:55:00
3:15 AM,58.1,33.8,40,30.06,10.0,SSW,9.2,17.3,N/A,,Clear,200,2013-04-07 08:15:00
3:35 AM,57.4,34.0,41,30.06,10.0,SSW,9.2,-,N/A,,Clear,200,2013-04-07 08:35:00
3:55 AM,58.3,33.6,39,30.07,10.0,SSW,4.6,-,N/A,,Clear,200,2013-04-07 08:55:00
4:15 AM,58.6,33.4,39,30.07,10.0,SSW,8.1,-,N/A,,Clear,210,2013-04-07 09:15:00
4:35 AM,59.0,33.4,38,30.07,10.0,South,8.1,18.4,N/A,,Clear,190,2013-04-07 09:35:00
4:55 AM,58.5,33.8,39,30.08,10.0,South,11.5,20.7,N/A,,Clear,180,2013-04-07 09:55:00
5:15 AM,58.8,34.5,40,30.08,10.0,South,13.8,18.4,N/A,,Clear,190,2013-04-07 10:15:00
5:35 AM,58.3,34.7,41,30.09,10.0,SSW,12.7,20.7,N/A,,Clear,200,2013-04-07 10:35:00
5:55 AM,57.7,35.2,43,30.09,10.0,South,11.5,18.4,N/A,,Clear,180,2013-04-07 10:55:00
6:15 AM,57.4,35.6,44,30.10,10.0,South,11.5,-,N/A,,Clear,180,2013-04-07 11:15:00
6:35 AM,58.1,36.0,44,30.10,10.0,South,9.2,21.9,N/A,,Clear,180,2013-04-07 11:35:00
6:55 AM,58.5,36.5,44,30.11,10.0,South,9.2,26.5,N/A,,Clear,180,2013-04-07 11:55:00
7:15 AM,58.1,37.0,45,30.12,10.0,South,12.7,20.7,N/A,,Clear,190,2013-04-07 12:15:00
7:35 AM,58.1,37.4,46,30.12,10.0,South,9.2,17.3,N/A,,Clear,190,2013-04-07 12:35:00
7:55 AM,59.2,37.9,45,30.13,10.0,South,8.1,-,N/A,,Clear,170,2013-04-07 12:55:00
8:15 AM,58.5,38.3,47,30.13,10.0,South,6.9,-,N/A,,Clear,190,2013-04-07 13:15:00
8:35 AM,58.6,38.5,47,30.14,10.0,South,11.5,16.1,N/A,,Clear,180,2013-04-07 13:35:00
8:55 AM,60.1,39.4,46,30.14,10.0,SSW,8.1,-,N/A,,Clear,200,2013-04-07 13:55:00
9:15 AM,61.7,40.3,45,30.14,10.0,South,10.4,16.1,N/A,,Clear,180,2013-04-07 14:15:00
9:35 AM,62.1,40.6,45,30.14,10.0,South,9.2,19.6,N/A,,Clear,190,2013-04-07 14:35:00
9:55 AM,62.8,40.8,45,30.14,10.0,South,12.7,20.7,N/A,,Clear,180,2013-04-07 14:55:00
10:15 AM,63.7,41.5,44,30.14,10.0,South,8.1,17.3,N/A,,Clear,190,2013-04-07 15:15:00
10:55 AM,65.5,42.3,43,30.13,10.0,South,9.2,-,N/A,,Clear,190,2013-04-07 15:55:00
11:15 AM,66.9,42.8,42,30.13,10.0,South,17.3,21.9,N/A,,Clear,180,2013-04-07 16:15:00
11:35 AM,67.1,43.0,42,30.12,10.0,South,6.9,18.4,N/A,,Clear,170,2013-04-07 16:35:00
11:55 AM,67.3,43.3,42,30.12,10.0,South,11.5,19.6,N/A,,Clear,170,2013-04-07 16:55:00
12:15 PM,67.8,42.8,40,30.11,10.0,South,10.4,25.3,N/A,,Scattered Clouds,190,2013-04-07 17:15:00
12:35 PM,69.6,42.4,37,30.10,10.0,SW,5.8,-,N/A,,Scattered Clouds,230,2013-04-07 17:35:00
12:55 PM,69.6,42.1,37,30.09,10.0,SW,13.8,20.7,N/A,,Clear,220,2013-04-07 17:55:00
1:15 PM,70.0,42.3,37,30.08,10.0,SSW,9.2,-,N/A,,Clear,210,2013-04-07 18:15:00
1:35 PM,69.1,42.4,38,30.08,10.0,SSW,10.4,21.9,N/A,,Scattered Clouds,210,2013-04-07 18:35:00
1:55 PM,70.2,41.7,36,30.07,10.0,SSW,10.4,-,N/A,,Scattered Clouds,200,2013-04-07 18:55:00
2:15 PM,70.3,41.0,34,30.06,10.0,SSW,13.8,23.0,N/A,,Scattered Clouds,210,2013-04-07 19:15:00
2:35 PM,71.8,42.1,34,30.05,10.0,South,11.5,19.6,N/A,,Scattered Clouds,170,2013-04-07 19:35:00
2:55 PM,71.4,41.2,33,30.05,10.0,South,11.5,20.7,N/A,,Clear,170,2013-04-07 19:55:00
3:15 PM,72.5,41.4,32,30.04,10.0,SSE,13.8,18.4,N/A,,Clear,160,2013-04-07 20:15:00
3:35 PM,72.3,39.7,31,30.05,10.0,SSW,10.4,20.7,N/A,,Clear,200,2013-04-07 20:35:00
3:55 PM,72.7,41.0,32,30.04,10.0,South,13.8,18.4,N/A,,Clear,180,2013-04-07 20:55:00
4:15 PM,73.0,40.5,31,30.04,10.0,South,9.2,16.1,N/A,,Clear,180,2013-04-07 21:15:00
4:35 PM,72.9,40.5,31,30.04,10.0,South,13.8,17.3,N/A,,Clear,190,2013-04-07 21:35:00
4:55 PM,72.1,40.5,32,30.04,10.0,South,10.4,19.6,N/A,,Clear,190,2013-04-07 21:55:00
5:15 PM,71.8,39.2,31,30.04,10.0,South,6.9,16.1,N/A,,Clear,190,2013-04-07 22:15:00
5:35 PM,71.2,38.1,30,30.05,10.0,South,9.2,-,N/A,,Clear,180,2013-04-07 22:35:00
5:55 PM,70.9,38.1,30,30.05,10.0,South,10.4,-,N/A,,Scattered Clouds,180,2013-04-07 22:55:00
6:15 PM,70.2,38.3,31,30.05,10.0,SW,6.9,-,N/A,,Clear,220,2013-04-07 23:15:00
6:35 PM,69.4,38.8,33,30.05,10.0,SSW,5.8,-,N/A,,Clear,210,2013-04-07 23:35:00
6:55 PM,68.5,39.4,34,30.05,10.0,SSW,8.1,-,N/A,,Clear,210,2013-04-07 23:55:00
7:15 PM,68.5,38.7,34,30.05,10.0,South,6.9,-,N/A,,Scattered Clouds,190,2013-04-08 00:15:00
7:35 PM,68.2,39.2,35,30.05,10.0,SSW,4.6,-,N/A,,Overcast,200,2013-04-08 00:35:00
7:55 PM,68.4,38.8,34,30.05,10.0,SSW,5.8,-,N/A,,Overcast,200,2013-04-08 00:55:00
8:15 PM,68.0,38.8,34,30.06,10.0,SSW,4.6,-,N/A,,Overcast,210,2013-04-08 01:15:00
8:35 PM,67.1,39.2,36,30.06,10.0,SSW,4.6,-,N/A,,Overcast,210,2013-04-08 01:35:00
8:55 PM,66.4,39.4,37,30.06,10.0,SW,6.9,-,N/A,,Mostly Cloudy,220,2013-04-08 01:55:00
9:15 PM,64.8,40.3,41,30.06,10.0,WSW,3.5,-,N/A,,Overcast,240,2013-04-08 02:15:00
9:35 PM,61.5,42.3,49,30.06,10.0,Calm,Calm,-,N/A,,Overcast,0,2013-04-08 02:35:00
9:55 PM,60.3,43.5,54,30.07,10.0,Calm,Calm,-,N/A,,Overcast,0,2013-04-08 02:55:00
10:15 PM,57.9,44.6,61,30.07,10.0,Calm,Calm,-,N/A,,Overcast,0,2013-04-08 03:15:00
10:35 PM,56.7,45.0,65,30.06,10.0,Calm,Calm,-,N/A,,Mostly Cloudy,0,2013-04-08 03:35:00
10:55 PM,54.3,45.5,72,30.06,10.0,Calm,Calm,-,N/A,,Scattered Clouds,0,2013-04-08 03:55:00
11:15 PM,53.1,44.1,71,30.07,10.0,Calm,Calm,-,N/A,,Clear,0,2013-04-08 04:15:00
11:35 PM,52.7,44.2,73,30.06,10.0,Calm,Calm,-,N/A,,Clear,0,2013-04-08 04:35:00
11:55 PM,52.2,44.4,75,30.06,10.0,Calm,Calm,-,N/A,,Clear,0,2013-04-08 04:55:00